DW8522 Weather Reports


Display with metric or nautical units.
time (UTC)temp
F
wind
direction
speed
MPH
gust
MPH
rain 1hr
in
rain 24hr
in
rain mn
in
humidity
%
barometer
mb
20260906110053 59 93 1.0 3.0 0.00 0.00 0.00 89 1008.7
20260906104551 59 79 1.0 4.0 0.00 0.00 0.00 89 1008.9
20260906103051 59 80 1.0 3.0 0.00 0.00 0.00 89 1009.2
20260906101547 59 84 2.0 3.0 0.00 0.00 0.00 89 1009.3
20260906100057 59 102 2.0 9.0 0.00 0.00 0.00 89 1009.4
20260906094549 59 104 2.0 5.0 0.00 0.00 0.00 89 1009.6
20260906093043 59 94 2.0 7.0 0.00 0.00 0.00 89 1009.7
20260906091541 59 119 3.0 8.0 0.00 0.00 0.00 88 1009.9
20260906090039 59 329 4.0 8.0 0.00 0.00 0.00 87 1010.0
20260906084639 59 325 2.0 10.0 0.00 0.00 0.00 87 1010.2
20260906083038 60 37 1.0 4.0 0.00 0.00 0.00 87 1010.1
20260906081535 60 108 0.0 6.0 0.00 0.00 0.00 85 1010.3
20260906080036 59 119 1.0 5.0 0.00 0.00 0.00 85 1010.3
20260906074537 59 86 1.0 2.0 0.00 0.00 0.00 85 1010.5
20260906073031 59 105 0.0 2.0 0.00 0.00 0.00 85 1010.7
20260906071528 59 141 0.0 4.0 0.00 0.00 0.00 84 1010.9
20260906070027 59 113 1.0 4.0 0.00 0.00 0.00 84 1011.1
20260906064527 59 104 1.0 4.0 0.00 0.00 0.00 84 1011.1
20260906063031 60 284 1.0 4.0 0.00 0.00 0.00 82 1011.2
20260906061525 60 110 1.0 4.0 0.00 0.00 0.00 80 1011.2
20260906060024 61 293 1.0 4.0 0.00 0.00 0.00 79 1011.2
20260906054542 62 342 1.0 3.0 0.00 0.00 0.00 77 1011.3
20260906053022 63 152 1.0 4.0 0.00 0.00 0.00 76 1011.4
20260906051529 63 285 2.0 5.0 0.00 0.00 0.00 74 1011.5
20260906050028 63 335 1.0 7.0 0.00 0.00 0.00 71 1011.8
20260906044519 63 317 3.0 7.0 0.00 0.00 0.00 73 1011.8
20260906043018 62 278 2.0 7.0 0.00 0.00 0.00 72 1011.7
20260906041516 62 302 3.0 7.0 0.00 0.00 0.00 71 1011.8
20260906040017 63 292 3.0 10.0 0.00 0.00 0.00 70 1012.1
20260906034517 62 188 3.0 10.0 0.00 0.00 0.00 70 1012.2
20260906033011 63 258 4.0 14.0 0.00 0.00 0.00 69 1012.4
20260906031527 63 278 4.0 8.0 0.00 0.00 0.00 71 1012.5
20260906030011 64 335 2.0 5.0 0.00 0.00 0.00 71 1012.6
20260906024530 64 120 1.0 4.0 0.00 0.00 0.00 72 1012.7
20260906023007 64 101 1.0 5.0 0.00 0.00 0.00 73 1012.8
20260906021501 63 14 1.0 4.0 0.00 0.00 0.00 76 1013.1
20260906020101 61 206 1.0 4.0 0.00 0.00 0.00 79 1013.2
20260906014557 60 335 2.0 7.0 0.00 0.00 0.00 80 1013.4
20260906013103 60 335 4.0 8.0 0.00 0.00 0.00 77 1013.7
20260906011553 61 302 4.0 9.0 0.00 0.00 0.00 76 1014.0
20260906010052 62 177 3.0 8.0 0.00 0.00 0.00 73 1014.2
20260906004549 62 322 2.0 7.0 0.00 0.00 0.00 73 1014.4
20260906003046 62 13 2.0 6.0 0.00 0.00 0.00 75 1014.8
20260906001543 62 322 3.0 9.0 0.00 0.00 0.00 72 1015.2
20260906000050 62 168 3.0 6.0 0.00 0.00 0.00 70 1015.5
20260905234546 63 129 1.0 7.0 0.00 0.00 0.00 71 1015.6
20260905233035 63 170 2.0 7.0 0.00 0.00 0.00 72 1015.9
20260905231531 61 143 2.0 6.0 0.00 0.00 0.00 75 1016.2
20260905230033 61 190 4.0 9.0 0.00 0.00 0.00 72 1016.6
20260905224528 62 173 4.0 10.0 0.00 0.00 0.00 73 1016.9
20260905223027 62 86 2.0 11.0 0.00 0.00 0.00 74 1017.0
20260905221525 62 257 2.0 7.0 0.00 0.00 0.00 76 1017.2
20260905220023 61 245 1.0 6.0 0.00 0.00 0.00 78 1017.2
20260905214521 61 39 2.0 6.0 0.00 0.00 0.00 79 1017.5
20260905213018 60 161 3.0 7.0 0.00 0.00 0.00 81 1017.5
20260905211539 59 136 2.0 5.0 0.00 0.00 0.00 84 1017.7
20260905210012 58 188 1.0 4.0 0.00 0.00 0.00 85 1017.9
20260905204509 57 111 2.0 5.0 0.00 0.00 0.00 87 1017.8
20260905203008 56 152 0.0 3.0 0.00 0.00 0.00 88 1017.8
20260905201505 56 131 0.0 1.0 0.00 0.00 0.00 89 1018.0
20260905200004 55 131 0.0 1.0 0.00 0.00 0.00 91 1018.0
20260905194501 54 131 0.0 1.0 0.00 0.00 0.00 92 1017.7
20260905193101 52 141 0.0 1.0 0.00 0.00 0.00 92 1017.6
20260905191602 51 139 0.0 1.0 0.00 0.00 0.00 92 1017.5
20260905190059 51 139 0.0 0.0 0.00 0.00 0.00 91 1017.4
20260905184558 51 138 0.0 0.0 0.00 0.00 0.00 90 1017.4
20260905183058 52 138 0.0 1.0 0.00 0.00 0.00 89 1017.0
20260905181557 53 139 0.0 1.0 0.00 0.00 0.00 89 1017.0
20260905180103 54 139 0.0 2.0 0.00 0.00 0.00 88 1016.9
20260905174556 54 141 0.0 2.0 0.00 0.00 0.00 88 1016.9
20260905173103 53 278 0.0 3.0 0.00 0.00 0.00 88 1016.9
20260905171555 53 101 0.0 2.0 0.00 0.00 0.00 87 1016.7
20260905170053 54 168 0.0 1.0 0.00 0.00 0.00 86 1016.8
20260905164553 54 168 0.0 3.0 0.00 0.00 0.00 85 1016.9
20260905163051 54 155 1.0 7.0 0.00 0.00 0.00 88 1016.9
20260905161551 52 103 0.0 2.0 0.00 0.00 0.00 90 1016.8
20260905160051 52 148 0.0 1.0 0.00 0.00 0.00 89 1017.0
20260905154556 52 150 0.0 1.0 0.00 0.00 0.00 89 1017.4
20260905153049 51 140 0.0 2.0 0.00 0.00 0.00 90 1017.0
20260905151549 51 103 1.0 3.0 0.00 0.00 0.00 89 1016.6
20260905150047 50 130 0.0 0.0 0.00 0.00 0.00 89 1017.1
20260905144544 50 129 0.0 1.0 0.00 0.00 0.00 88 1017.1
20260905143048 51 129 0.0 1.0 0.00 0.00 0.00 87 1017.3
20260905141536 52 129 0.0 2.0 0.00 0.00 0.00 85 1017.7
20260905140033 53 129 0.0 1.0 0.00 0.00 0.00 84 1017.9
20260905134535 55 122 0.0 4.0 0.00 0.00 0.00 84 1018.0
20260905133029 55 160 2.0 5.0 0.00 0.00 0.00 83 1017.9
20260905131528 55 166 1.0 6.0 0.00 0.00 0.00 82 1018.1
20260905130024 55 158 1.0 3.0 0.00 0.00 0.00 82 1018.2
20260905124534 55 187 0.0 3.0 0.00 0.00 0.00 81 1018.3
20260905123023 55 328 2.0 6.0 0.00 0.00 0.00 81 1018.1
20260905121521 55 173 1.0 6.0 0.00 0.00 0.00 80 1018.3
20260905120019 54 124 1.0 4.0 0.00 0.00 0.00 82 1018.4
20260905114519 54 318 0.0 4.0 0.00 0.00 0.00 83 1018.5
20260905113019 54 165 0.0 5.0 0.00 0.00 0.00 82 1018.4
20260905111520 53 166 1.0 3.0 0.00 0.00 0.00 83 1018.6